Date,TemperatureHighF,TemperatureAvgF,TemperatureLowF,DewpointHighF,DewpointAvgF,DewpointLowF,HumidityHigh,HumidityAvg,HumidityLow,PressureMaxIn,PressureMinIn,WindSpeedMaxMPH,WindSpeedAvgMPH,GustSpeedMaxMPH,PrecipitationSumIn
2013-7-1,84.7,73.9,69.6,68.1,63.1,54.1,81,71,35,28.97,28.85,0,0,0,0.00
2013-7-2,85.1,74.8,70.3,69.1,63.9,52.5,80,70,34,29.14,28.97,0,0,0,0.08
2013-7-3,87.1,75.1,69.8,67.6,63.3,56.3,79,68,36,29.23,29.12,0,0,0,0.00
2013-7-4,92.1,77.7,70.5,68.4,61.7,50.1,81,61,29,29.23,29.14,0,0,0,0.04
2013-7-5,92.7,78.9,70.2,67.0,59.2,49.2,80,55,24,29.20,29.12,0,0,0,0.04
2013-7-6,99.3,79.9,70.0,67.2,58.4,43.1,80,54,16,29.20,29.09,0,0,0,0.00
2013-7-7,88.2,73.8,68.0,65.3,60.1,47.5,81,64,30,29.14,29.06,2,0,2,0.63
2013-7-8,90.1,74.2,67.6,66.8,57.3,40.6,81,61,19,29.14,29.06,0,0,0,0.63
2013-7-9,87.8,74.3,69.3,67.2,62.9,55.1,80,69,34,29.12,29.03,0,0,0,0.04
2013-7-10,90.7,77.2,70.0,70.0,63.9,55.1,80,65,35,29.06,28.88,0,0,0,0.37
2013-7-11,85.5,73.2,66.7,64.1,59.1,49.1,81,64,30,29.00,28.88,0,0,0,0.09
2013-7-12,72.7,68.9,65.8,66.2,62.5,57.5,82,80,73,29.09,28.94,0,0,0,0.25
2013-7-13,84.6,73.2,68.0,66.2,61.7,49.3,82,70,32,29.29,29.09,0,0,0,0.00
2013-7-14,93.7,78.1,72.0,69.8,59.7,42.1,81,59,18,29.35,29.26,0,0,0,0.00
2013-7-15,101.5,78.4,69.1,68.4,58.7,43.5,82,57,15,29.35,29.23,0,0,0,0.04
2013-7-16,99.9,80.5,72.1,68.0,60.1,44.3,80,56,16,29.32,29.20,0,0,0,0.00
2013-7-17,96.4,80.4,72.3,67.1,61.9,49.5,77,56,23,29.29,29.14,0,0,0,0.00
2013-7-18,101.7,82.8,74.1,70.1,61.6,43.8,80,55,15,29.17,29.06,0,0,0,0.00
2013-7-19,100.4,80.2,70.9,67.3,61.3,45.0,79,57,16,29.06,28.91,2,0,2,0.00
2013-7-20,88.2,78.0,70.7,62.8,57.5,49.0,76,51,29,28.94,28.85,0,0,2,0.00
2013-7-21,84.0,74.1,69.4,67.0,61.0,51.4,81,65,35,29.00,28.94,0,0,0,0.00
2013-7-22,83.5,73.4,68.5,70.3,64.5,54.4,82,75,38,29.00,28.82,0,0,0,1.37
2013-7-23,91.4,74.7,67.1,68.4,62.0,43.7,80,68,22,28.82,28.73,0,0,0,0.12
2013-7-24,83.5,70.8,61.7,64.9,51.3,33.5,81,56,19,28.97,28.73,0,0,0,0.12
2013-7-25,87.6,65.8,56.3,50.0,41.5,27.0,73,46,13,29.06,28.97,0,0,0,0.00
2013-7-26,90.3,67.8,56.7,59.0,45.5,28.9,83,52,14,29.12,29.03,0,0,0,0.00
2013-7-27,75.4,68.1,62.4,63.1,58.8,47.2,81,73,46,29.06,28.91,0,0,0,0.00
2013-7-28,89.6,72.4,66.9,64.2,51.6,34.5,81,54,15,29.03,28.88,0,0,0,0.04
2013-7-29,82.9,67.0,57.2,52.1,41.4,30.1,75,43,16,29.17,29.00,0,0,0,0.00
2013-7-30,85.6,68.1,56.8,57.4,44.4,33.6,82,48,18,29.23,29.14,0,0,0,0.00
2013-7-31,81.9,68.1,61.2,63.5,54.2,44.6,81,63,29,29.17,29.00,0,0,0,0.05